Weather History for KLWD - August, 2014

Change the Weather History Date:

Monday, August 11, 2014

  Actual Average Record
Temperature  
Mean Temperature 70 °F 75 °F  
Max Temperature 78 °F 84 °F 97 °F (1988)
Min Temperature 62 °F 65 °F 48 °F (2004)
Degree Days  
Heating Degree Days 0 0  
Month to date heating degree days 0 0  
Since 1 June heating degree days 12 21  
Since 1 July heating degree days 7 2  
Cooling Degree Days 5 10  
Month to date cooling degree days 87 110  
Year to date cooling degree days 618 673  
Since 1 June cooling degree days 506 619  
Growing Degree Days 20 (Base 50)    
Moisture  
Dew Point 62 °F    
Average Humidity 75    
Maximum Humidity 100    
Minimum Humidity 50    
Precipitation  
Precipitation 0.00 in 0.13 in 2.61 in (1949)
Month to date precipitation 3.57 1.45  
Sea Level Pressure  
Sea Level Pressure 30.02 in    
Wind  
Wind Speed 11 mph (NW)    
Max Wind Speed 22 mph    
Max Gust Speed 29 mph    
Visibility 5 miles    
Events Fog    
T = Trace of Precipitation, MM = Missing Value Source: NWS Daily Summary

Daily Weather History Graph

Daily Weather History Graph

Search for Another Location

Airport or City:

Trip Planner

Search our weather history database for the weather conditions in past years. The results will help you decide how hot, cold, wet, or windy it might be!

Date:

Astronomy

Aug. 11, 2014 Rise Set
Actual Time 6:22 AM CDT 8:18 PM CDT
Civil Twilight 5:52 AM CDT 8:48 PM CDT
Nautical Twilight 5:16 AM CDT 9:24 PM CDT
Astronomical Twilight 4:36 AM CDT 10:03 PM CDT
Moon 8:46 PM CDT (8/11) 7:28 AM CDT (8/11)
Length of Visible Light 14h 55m
Length of Day
13h 56m
Full, 99% of the Moon is Illuminated
Aug 11
Full
Aug 17
Last Quarter
Aug 25
New
Sep 2
First Quarter
Sep 8
Full

Hourly Weather History & Observations

Time (CDT) Temp. Dew Point Humidity Pressure Visibility Wind Dir Wind Speed Gust Speed Precip Events Conditions
12:06 AM 66.9 °F 64.9 °F 93% 30.03 in 0.8 mi Calm Calm - N/A   Mist
12:10 AM 66.9 °F 66.0 °F 97% 30.04 in 1.2 mi WNW 3.5 mph - N/A   Partly Cloudy
12:17 AM 66.0 °F 64.9 °F 96% 30.04 in 0.8 mi WNW 4.6 mph - N/A   Mist
12:53 AM 64.9 °F 64.0 °F 97% 30.03 in 0.2 mi West 4.6 mph - N/A Fog Fog
1:05 AM 64.9 °F 64.0 °F 97% 30.04 in 0.2 mi West 4.6 mph - N/A Fog Fog
1:15 AM 64.9 °F 64.9 °F 100% 30.05 in 1.0 mi WNW 3.5 mph - N/A   Mist
1:32 AM 64.9 °F 64.0 °F 97% 30.04 in 0.5 mi NW 4.6 mph - N/A Fog Fog
1:45 AM 64.9 °F 64.0 °F 97% 30.04 in 0.8 mi NW 3.5 mph - N/A   Mist
1:53 AM 64.9 °F 64.0 °F 97% 30.02 in 0.5 mi WNW 4.6 mph - N/A Fog Fog
2:49 AM 64.4 °F 64.4 °F 100% 30.03 in 1.0 mi WNW 4.6 mph - N/A   Mist
2:53 AM 64.9 °F 64.0 °F 97% 30.01 in 1.0 mi West 4.6 mph - N/A   Mist
3:07 AM 64.0 °F 64.0 °F 100% 30.02 in 1.0 mi WNW 4.6 mph - N/A   Clear
3:24 AM 64.0 °F 63.0 °F 96% 30.02 in 0.8 mi West 4.6 mph - N/A   Mist
3:46 AM 64.9 °F 64.0 °F 97% 30.01 in 1.2 mi WNW 6.9 mph - N/A   Partly Cloudy
3:53 AM 64.9 °F 64.0 °F 97% 30.00 in 1.2 mi NW 4.6 mph - N/A   Mostly Cloudy
4:01 AM 64.0 °F 64.0 °F 100% 30.01 in 0.8 mi West 3.5 mph - N/A   Mist
4:53 AM 64.0 °F 63.0 °F 96% 30.00 in 0.5 mi West 4.6 mph - N/A Fog Fog
5:04 AM 64.0 °F 63.0 °F 96% 30.01 in 2.0 mi West 5.8 mph - N/A   Mostly Cloudy
5:12 AM 64.0 °F 63.0 °F 96% 30.01 in 4.0 mi WNW 5.8 mph - N/A   Scattered Clouds
5:53 AM 64.0 °F 63.0 °F 96% 29.99 in 7.0 mi NW 6.9 mph - N/A   Partly Cloudy
6:53 AM 66.0 °F 64.9 °F 96% 29.99 in 10.0 mi NNW 9.2 mph - N/A   Clear
7:31 AM 66.0 °F 64.9 °F 96% 30.02 in 9.0 mi NNW 8.1 mph - N/A   Partly Cloudy
7:53 AM 66.0 °F 64.9 °F 96% 30.01 in 10.0 mi NNW 9.2 mph - N/A   Partly Cloudy
8:53 AM 70.0 °F 64.9 °F 84% 30.02 in 10.0 mi North 13.8 mph - N/A   Partly Cloudy
9:53 AM 73.0 °F 64.9 °F 76% 30.04 in 10.0 mi NNW 16.1 mph 21.9 mph N/A   Partly Cloudy
10:53 AM 73.9 °F 63.0 °F 68% 30.04 in 10.0 mi NW 15.0 mph 21.9 mph N/A   Scattered Clouds
11:53 AM 75.0 °F 57.9 °F 55% 30.04 in 10.0 mi NNW 17.3 mph 24.2 mph N/A   Clear
12:53 PM 75.0 °F 57.9 °F 55% 30.04 in 10.0 mi NW 16.1 mph 23.0 mph N/A   Clear
1:53 PM 75.9 °F 57.9 °F 54% 30.04 in 10.0 mi NW 19.6 mph - N/A   Scattered Clouds
3:53 PM 75.9 °F 55.9 °F 50% 30.02 in 10.0 mi NW 16.1 mph 24.2 mph N/A   Partly Cloudy
4:53 PM 77.0 °F 57.9 °F 52% 30.01 in 10.0 mi NNW 17.3 mph 24.2 mph N/A   Partly Cloudy
5:53 PM 75.9 °F 57.0 °F 52% 30.02 in 10.0 mi NNW 11.5 mph 23.0 mph N/A   Clear
6:53 PM 73.9 °F 57.0 °F 55% 30.01 in 10.0 mi NW 13.8 mph - N/A   Clear
7:53 PM 71.1 °F 57.9 °F 63% 30.01 in 10.0 mi NW 9.2 mph - N/A   Clear
8:53 PM 66.9 °F 57.9 °F 73% 30.01 in 10.0 mi NW 6.9 mph - N/A   Clear
9:53 PM 64.9 °F 57.9 °F 78% 30.03 in 10.0 mi NW 8.1 mph - N/A   Clear
10:53 PM 64.0 °F 57.9 °F 80% 30.04 in 10.0 mi NNW 8.1 mph - N/A   Clear
11:53 PM 63.0 °F 57.0 °F 81% 30.05 in 10.0 mi NNW 9.2 mph - N/A   Clear